SCP
0 0 0 0 0 0 0 0 0 0 0 0 0 0 0 -0 0 0 0 -0 0 -0 0 0 0 -0 -0 -0 0 0 0 0 0 0 0 0 0 0 0 0 0 0 0 0
0 0 0 0 0 0 0 0 0 0 0 0 0 0 0 0 0 -0 -0 -0 -0 -0 -0 0 0 -0 -0 -0 0 0 0 0 0 0 0 0 0 0 0 0 0 0 0 0
0 0 0 0 0 0 0 0 0 0 0 0 0 0 0 -0 0 0 -0 -0 -0 -0 -0 0 0 0 -0 -0 -0 0 0 0 0 0 0 0 0 0 0 0 0 0 0 0
0 0 0 0 0 0 0 0 0 0 0 0 0 0 0 0 0 0 0 0 -0 -0 -0 -0 0 0 0 -0 -0 -0 0 0 0 0 0 0 0 0 0 0 0 0 0 0
0 0 0 0 0 0 0 0 0 0 0 0 0 0 0 0 -0 0 0 0 -0 -0 -0 -0 -0 0 0 0 0 0 0 0 0 0 0 0 0 0 0 0 0 0 0 0
0 0 0 0 0 0 0 0 0 0 0 0 0 0 0 0 0 0 0 -0 -0 -0 -0 -0 -0 -0 0 0 0 0 0 0 0 0 0 0 0 0 0 0 0 0 0 0
0 0 0 0 0 0 0 0 0 0 0 0 0 0 0 0 0 0 -0 -0 0 -0 -0 -0 -0 -0 -0 0 0 0 0 0 0 0 0 0 0 0 0 0 0 0 0 0
0 0 0 0 0 0 0 0 0 0 0 0 0 0 0 0 0 0 -0 0 0 -0 -0 -0 -0 -0 -0 0 -0 -0 0 0 0 0 0 0 0 0 0 0 0 0 0 0
0 0 0 0 0 0 0 0 0 0 0 0 0 0 0 0 0 0 0 0 0 0 0 -0 -0 0 0 0 0 -0 -0 0 0 0 0 0 0 0 0 0 0 0 0 0
-0 0 0 0 0 0 0 0 0 0 0 0 0 0 0 0 0 0 -0 0 0 0 0 0 0 0 0 0 0 -0 -0 0 0 0 0 0 0 0 0 0 0 0 0 0
0 -0 -0 -0 0 0 0 0 0 0 0 0 0 0 0 0 0 0 -0 0 0 0 0 0 0 0 0 0 0 0 0 0 0 0 0 0 0 0 0 0 0 0 0 0
0 0 -0 0 0 0 0 0 0 0 0 0 0 0 0 0 -0 -0 0 0 0 0 0 0 0 0 0 0 0 0 0 0 0 0 0 0 0 0 0 0 0 0 0 0
0 0 -0 -0 0 0 0 0 0 0 0 0 0 0 0 0 0 0 0 0 0 0 0 0 0 0 0 0 0 0 0 0 0 0 0 0 0 0 0 0 0 0 0 0
0 0 0 -0 -0 0 0 0 0 0 0 0 0 0 0 0 0 0 0 0 -0 0 0 0 0 0 -0 0 0 0 0 0 0 0 0 0 0 0 0 0 0 0 0 0
0 0 0 0 0 0 0 0 0 0 0 0 0 0 0 0 0 0 0 0 0 0 0 0 -0 -0 -0 -0 0 0 0 0 0 0 0 0 0 0 0 0 0 0 0 0
0 0 -0 0 0 0 0 0 0 0 0 0 0 0 0 0 0 0 0 0 0 0 0 0 0 0 0 -0 0 0 0 0 0 0 0 0 0 0 0 0 0 0 0 0
0 0 0 0 0 0 0 0 0 0 0 0 0 0 0 0 0 0 0 0 0 0 0 0 0 0 -0 -0 0 0 0 0 0 0 0 0 0 0 0 0 0 0 0 0
0 0 0 0 0 0 0 0 0 0 0 0 0 0 0 0 0 0 0 0 0 0 0 0 0 0 0 0 -0 -0 0 0 0 0 0 0 0 0 0 0 0 0 0 0
0 0 0 0 0 0 0 0 0 0 0 0 0 0 0 0 0 0 0 0 0 0 0 0 0 0 0 0 -0 -0 0 0 0 0 0 0 0 0 0 0 0 0 0 0
0 0 0 0 0 0 0 0 0 0 0 0 0 0 0 0 0 0 0 0 0 0 0 0 0 0 0 0 0 0 -0 0 0 0 0 0 0 0 0 0 0 0 0 0
0 0 0 0 0 0 0 0 0 0 0 0 0 0 0 0 0 0 0 0 0 0 0 0 0 0 0 -0 -0 0 -0 0 0 0 0 0 0 -0 0 0 0 0 0 0
0 0 0 0 0 0 0 0 0 0 0 0 0 0 0 0 0 0 0 0 0 0 0 0 0 0 0 0 0 -0 -0 -0 0 0 0 0 0 -0 0 0 0 0 0 0
0 0 0 0 0 0 0 0 0 0 0 0 0 0 0 0 0 0 0 0 0 0 0 0 0 -0 -0 0 0 0 0 -0 0 0 0 0 0 0 0 0 0 0 0 0
0 0 0 0 0 0 0 0 0 0 0 0 0 0 0 0 0 0 0 0 0 0 0 0 -0 -0 -0 -0 -0 -0 0 -0 0 0 0 0 0 0 0 0 0 0 0 0
0 0 0 0 0 0 0 0 0 0 0 0 0 0 0 0 0 0 0 0 0 0 0 0 -0 -0 -0 -0 -0 -0 0 0 -0 0 0 0 0 0 0 0 0 0 0 0
0 0 0 0 0 0 0 0 0 0 0 0 0 0 0 0 0 0 0 0 0 0 0 0 0 -0 -0 -0 -0 -0 -0 -0 -0 0 0 0 0 0 0 0 0 0 0 0
0 0 0 0 0 0 0 0 0 0 0 0 0 0 0 0 0 0 0 0 0 0 0 0 0 0 -0 -0 0 -0 -0 -0 -0 0 0 -0 0 0 0 0 0 0 0 0
Wind_Speed_500mb
56 54 54 56 54 55 47 16 5 13 10 6 3 9 18 23 22 21 17 17 19 23 23 23 10 3 7 16 17 15 7 13 24 52 49 49 55 43 53 25 40 21 11 8
55 52 55 54 49 47 40 21 8 11 14 7 9 13 19 10 24 21 14 20 11 22 24 12 9 5 15 22 10 10 7 18 21 29 43 42 54 46 52 34 29 39 23 6
51 52 56 53 43 36 25 13 7 6 6 6 15 20 14 18 19 16 28 21 24 22 21 16 14 18 15 14 13 14 14 16 32 13 43 30 50 50 52 45 21 25 29 26
49 58 58 52 41 28 16 10 5 8 7 9 17 27 18 25 17 16 23 7 11 21 14 32 15 16 23 9 13 12 7 24 36 26 12 13 23 49 47 52 41 32 25 35
55 62 63 47 33 26 10 11 10 13 32 20 18 11 15 20 22 13 20 20 30 29 28 29 35 30 18 4 9 11 7 9 26 33 26 15 14 17 49 43 47 38 28 31
58 64 63 50 27 21 6 8 10 12 18 11 14 11 15 26 31 23 18 27 31 32 24 30 40 38 35 30 25 23 9 8 17 37 32 12 22 26 34 42 41 40 41 39
57 66 65 52 23 17 16 19 14 8 12 16 18 26 33 30 30 28 41 37 19 17 45 54 45 47 46 41 34 31 18 14 12 21 27 26 18 15 26 29 39 42 36 29
53 65 68 56 21 15 17 19 13 8 12 25 30 23 26 36 30 27 31 25 13 37 29 14 14 10 18 31 36 31 26 13 8 10 23 20 14 16 6 20 20 12 17 32
46 61 63 62 26 13 17 19 19 17 12 5 36 37 30 19 21 17 15 28 30 16 6 9 11 6 5 3 3 25 24 21 8 10 28 28 20 16 12 9 18 17 13 11
43 59 60 58 38 12 18 25 23 18 15 34 13 9 20 16 14 12 31 20 13 7 5 6 8 5 6 5 5 25 19 12 14 12 15 13 21 19 8 22 8 19 18 16
45 58 61 57 45 17 16 18 23 22 17 43 37 31 28 17 19 6 22 19 2 6 5 7 8 8 8 8 5 14 15 13 9 6 11 10 33 8 8 15 16 20 24 23
51 51 61 58 47 25 16 21 23 21 31 35 45 37 27 27 42 39 10 12 13 5 6 6 5 5 4 8 2 9 6 1 3 4 7 8 19 17 16 15 17 25 29 30
55 47 61 57 44 28 24 18 20 25 25 36 11 8 17 22 13 19 9 7 8 7 14 5 4 7 6 6 6 9 3 11 5 13 7 12 9 16 21 25 25 29 31 33
53 48 60 55 37 25 24 16 11 14 14 8 7 7 26 18 25 23 17 35 23 18 22 7 5 7 6 4 4 4 6 11 9 12 8 8 16 23 33 33 29 34 33 35
55 58 56 44 33 26 22 22 16 16 7 10 24 31 8 23 23 20 23 12 25 11 8 6 5 8 8 3 3 2 1 10 7 4 24 15 18 29 38 28 40 40 39 40
61 60 52 36 34 14 7 2 1 6 15 6 6 14 11 16 14 14 5 8 14 8 7 8 9 12 13 8 4 8 14 19 23 24 38 38 38 36 30 33 45 39 38 35
65 60 48 31 14 5 6 3 5 15 6 4 10 8 3 13 7 6 3 8 8 10 9 6 16 14 23 6 8 24 27 30 37 41 42 37 18 31 40 39 42 39 33 28
67 57 40 14 1 9 2 10 11 6 2 5 6 8 9 8 9 4 4 4 7 5 9 6 5 18 10 5 31 45 44 42 38 30 32 41 47 45 41 37 37 37 31 30
64 52 17 2 4 2 10 14 9 12 6 6 4 6 7 15 4 4 4 3 4 3 2 1 4 4 4 12 35 40 44 30 44 41 41 43 43 44 41 37 32 30 30 32
54 24 8 7 5 9 8 4 5 6 7 8 7 6 7 11 10 3 6 2 4 4 4 3 4 2 20 24 34 32 47 43 43 39 38 33 38 37 38 37 33 32 31 33
32 16 7 15 24 10 7 7 9 10 7 11 12 12 10 4 5 6 2 5 2 5 6 4 3 8 24 39 43 48 51 53 46 36 34 39 39 37 38 36 30 28 29 30
41 33 33 16 5 9 8 7 7 9 3 11 7 5 8 3 3 5 5 5 5 3 5 5 9 12 38 46 47 53 56 58 53 42 34 31 31 26 27 28 26 25 27 29
25 5 6 6 7 5 10 10 7 6 8 7 6 7 2 5 6 7 3 4 3 11 5 7 5 29 38 46 48 55 61 66 55 42 23 9 13 15 14 16 19 21 24 24
6 5 9 9 9 10 8 9 5 3 8 9 12 6 8 7 6 2 5 1 3 3 3 4 11 28 37 42 47 50 55 66 61 45 29 15 11 9 10 12 16 19 17 16
9 9 10 12 19 11 11 14 10 11 8 9 7 3 7 5 5 3 5 4 4 4 3 6 17 20 30 41 45 49 51 55 66 54 40 35 25 20 18 16 14 15 16 16
11 16 12 16 12 17 17 23 22 12 10 5 7 4 5 6 4 5 7 4 6 5 6 11 13 15 21 30 40 45 45 47 46 53 48 38 34 29 27 23 21 19 18 20
12 16 28 33 24 21 21 14 21 15 15 10 4 6 4 5 5 4 5 7 6 11 9 8 9 8 15 23 30 39 43 41 43 41 36 46 44 38 40 40 37 33 24 22
Wind_Direction_500mb
350 348 350 351 350 351 2 357 324 344 353 313 183 323 333 323 319 327 292 294 289 286 293 294 270 270 209 206 301 302 274 286 271 198 205 216 201 203 199 197 198 247 216 229
348 347 349 351 350 353 353 343 299 330 354 342 337 326 301 290 310 337 331 306 318 305 298 291 301 335 199 196 229 306 357 232 224 212 199 207 195 207 195 211 201 206 221 229
351 350 350 350 350 354 351 340 329 337 8 337 333 331 306 327 329 314 318 301 298 332 314 293 286 309 43 253 256 260 252 251 253 190 195 191 202 203 192 206 205 187 212 208
356 350 349 352 351 5 10 357 358 325 306 317 320 297 295 305 353 323 312 282 313 339 315 316 297 354 312 314 202 249 279 242 227 259 313 300 275 206 205 207 217 226 194 228
354 352 349 352 349 357 11 348 338 319 294 289 301 292 305 317 341 314 306 306 326 316 301 295 295 310 309 324 307 297 279 302 263 250 238 240 243 247 206 208 211 227 232 236
354 352 350 354 352 352 322 305 307 290 293 290 308 303 320 312 316 294 287 312 309 300 320 320 300 290 287 275 286 289 294 308 240 233 213 228 230 209 222 210 212 217 221 231
351 351 350 351 349 331 300 302 306 273 287 319 307 304 298 303 304 288 292 293 293 298 314 306 276 253 252 254 254 250 261 304 270 240 179 218 90 40 205 217 213 222 232 234
342 349 349 349 341 321 306 296 290 270 283 310 297 327 319 308 302 291 288 310 283 300 303 286 277 212 236 236 231 229 228 258 279 217 204 189 106 35 348 200 161 10 301 255
339 345 348 349 342 319 305 290 286 272 295 269 320 305 302 299 314 308 290 322 321 317 277 262 271 310 331 211 284 197 208 227 298 249 211 201 67 4 314 278 185 22 342 316
341 345 347 348 344 311 288 293 289 262 264 280 294 292 303 296 295 291 303 337 323 339 296 283 284 281 304 309 256 169 181 213 230 266 236 101 8 345 168 207 77 348 338 326
339 344 346 345 340 316 290 290 283 264 260 284 279 285 281 276 270 271 316 313 42 299 293 310 352 343 323 296 100 173 178 191 182 232 245 179 3 55 331 16 348 343 338 332
341 336 342 340 337 319 279 293 281 279 259 273 295 288 291 275 263 261 274 290 311 285 295 325 307 295 281 297 201 180 235 44 332 295 39 63 21 58 42 4 347 351 339 333
340 335 338 336 331 315 294 270 272 294 283 305 293 325 306 329 293 233 246 243 264 247 302 311 288 301 334 328 25 307 170 23 304 289 65 13 107 35 17 360 344 343 342 336
340 336 338 333 327 308 300 275 274 252 277 291 317 324 331 337 320 285 248 243 276 292 303 289 268 271 208 306 285 301 329 323 301 293 28 45 163 357 349 339 339 340 341 340
340 335 337 329 321 308 296 296 253 235 256 309 305 311 307 0 352 331 251 262 247 267 270 265 265 321 316 253 207 5 293 347 346 327 329 329 328 323 333 331 336 336 338 337
337 332 335 328 313 303 287 265 33 261 243 291 291 317 301 339 355 42 171 234 226 255 266 272 280 279 340 312 291 85 7 344 331 312 311 302 296 294 313 319 323 327 328 331
336 330 332 329 308 225 194 258 234 311 263 245 282 281 310 350 14 56 103 217 255 276 303 266 334 344 326 280 342 359 335 319 309 304 307 302 321 311 309 313 315 318 320 326
336 327 334 338 187 151 220 224 287 276 232 260 285 288 300 4 354 19 337 227 233 246 306 346 333 312 316 337 337 324 318 316 310 304 308 294 296 295 299 305 312 312 315 328
338 325 326 165 134 180 237 289 265 184 215 284 251 298 303 335 323 288 250 287 258 268 289 241 302 324 336 290 307 300 306 290 290 296 291 292 288 288 291 292 304 307 312 323
340 337 312 221 209 309 302 149 155 198 206 227 251 285 287 317 320 276 290 231 261 265 96 271 248 234 269 328 332 332 329 319 324 276 289 293 291 291 290 288 293 294 300 312
354 335 283 282 300 273 201 204 212 171 220 214 234 266 300 323 294 312 1 301 359 266 77 346 311 353 352 348 347 343 337 333 314 309 288 279 282 289 286 284 286 289 295 303
319 298 284 296 243 202 228 202 168 217 263 178 243 332 248 256 236 269 281 284 261 338 15 253 344 4 352 346 340 336 334 336 331 331 304 268 261 284 282 276 281 287 293 299
321 306 272 242 206 227 217 202 183 213 192 183 278 302 209 199 237 257 285 271 270 313 270 345 322 349 352 350 346 343 347 353 357 350 336 255 268 292 276 281 291 298 299 297
288 258 268 228 205 230 207 201 216 144 246 276 304 299 225 203 217 229 258 268 290 260 294 264 355 346 348 352 352 351 351 358 5 10 27 27 351 348 323 310 314 315 306 299
250 218 243 231 240 244 226 224 222 221 242 260 255 216 225 185 249 206 264 234 237 226 252 307 338 353 347 347 353 355 359 3 13 15 25 26 19 7 352 354 345 334 322 317
229 231 251 237 252 249 228 232 239 219 216 216 249 243 219 199 225 212 220 242 232 219 223 289 324 344 355 350 348 356 1 5 14 17 24 23 21 17 11 7 357 353 349 325
228 241 234 252 265 272 275 258 245 197 210 250 228 242 238 119 228 230 208 217 220 238 278 302 320 320 349 353 351 350 358 10 16 18 25 27 23 19 15 4 354 351 351 337
Wind_Speed_850mb
56 54 54 56 54 55 47 16 5 13 10 6 3 9 18 23 22 21 17 17 19 23 23 23 10 3 7 16 17 15 7 13 24 52 49 49 55 43 53 25 40 21 11 8
55 52 55 54 49 47 40 21 8 11 14 7 9 13 19 10 24 21 14 20 11 22 24 12 9 5 15 22 10 10 7 18 21 29 43 42 54 46 52 34 29 39 23 6
51 52 56 53 43 36 25 13 7 6 6 6 15 20 14 18 19 16 28 21 24 22 21 16 14 18 15 14 13 14 14 16 32 13 43 30 50 50 52 45 21 25 29 26
49 58 58 52 41 28 16 10 5 8 7 9 17 27 18 25 17 16 23 7 11 21 14 32 15 16 23 9 13 12 7 24 36 26 12 13 23 49 47 52 41 32 25 35
55 62 63 47 33 26 10 11 10 13 32 20 18 11 15 20 22 13 20 20 30 29 28 29 35 30 18 4 9 11 7 9 26 33 26 15 14 17 49 43 47 38 28 31
58 64 63 50 27 21 6 8 10 12 18 11 14 11 15 26 31 23 18 27 31 32 24 30 40 38 35 30 25 23 9 8 17 37 32 12 22 26 34 42 41 40 41 39
57 66 65 52 23 17 16 19 14 8 12 16 18 26 33 30 30 28 41 37 19 17 45 54 45 47 46 41 34 31 18 14 12 21 27 26 18 15 26 29 39 42 36 29
53 65 68 56 21 15 17 19 13 8 12 25 30 23 26 36 30 27 31 25 13 37 29 14 14 10 18 31 36 31 26 13 8 10 23 20 14 16 6 20 20 12 17 32
46 61 63 62 26 13 17 19 19 17 12 5 36 37 30 19 21 17 15 28 30 16 6 9 11 6 5 3 3 25 24 21 8 10 28 28 20 16 12 9 18 17 13 11
43 59 60 58 38 12 18 25 23 18 15 34 13 9 20 16 14 12 31 20 13 7 5 6 8 5 6 5 5 25 19 12 14 12 15 13 21 19 8 22 8 19 18 16
45 58 61 57 45 17 16 18 23 22 17 43 37 31 28 17 19 6 22 19 2 6 5 7 8 8 8 8 5 14 15 13 9 6 11 10 33 8 8 15 16 20 24 23
51 51 61 58 47 25 16 21 23 21 31 35 45 37 27 27 42 39 10 12 13 5 6 6 5 5 4 8 2 9 6 1 3 4 7 8 19 17 16 15 17 25 29 30
55 47 61 57 44 28 24 18 20 25 25 36 11 8 17 22 13 19 9 7 8 7 14 5 4 7 6 6 6 9 3 11 5 13 7 12 9 16 21 25 25 29 31 33
53 48 60 55 37 25 24 16 11 14 14 8 7 7 26 18 25 23 17 35 23 18 22 7 5 7 6 4 4 4 6 11 9 12 8 8 16 23 33 33 29 34 33 35
55 58 56 44 33 26 22 22 16 16 7 10 24 31 8 23 23 20 23 12 25 11 8 6 5 8 8 3 3 2 1 10 7 4 24 15 18 29 38 28 40 40 39 40
61 60 52 36 34 14 7 2 1 6 15 6 6 14 11 16 14 14 5 8 14 8 7 8 9 12 13 8 4 8 14 19 23 24 38 38 38 36 30 33 45 39 38 35
65 60 48 31 14 5 6 3 5 15 6 4 10 8 3 13 7 6 3 8 8 10 9 6 16 14 23 6 8 24 27 30 37 41 42 37 18 31 40 39 42 39 33 28
67 57 40 14 1 9 2 10 11 6 2 5 6 8 9 8 9 4 4 4 7 5 9 6 5 18 10 5 31 45 44 42 38 30 32 41 47 45 41 37 37 37 31 30
64 52 17 2 4 2 10 14 9 12 6 6 4 6 7 15 4 4 4 3 4 3 2 1 4 4 4 12 35 40 44 30 44 41 41 43 43 44 41 37 32 30 30 32
54 24 8 7 5 9 8 4 5 6 7 8 7 6 7 11 10 3 6 2 4 4 4 3 4 2 20 24 34 32 47 43 43 39 38 33 38 37 38 37 33 32 31 33
32 16 7 15 24 10 7 7 9 10 7 11 12 12 10 4 5 6 2 5 2 5 6 4 3 8 24 39 43 48 51 53 46 36 34 39 39 37 38 36 30 28 29 30
41 33 33 16 5 9 8 7 7 9 3 11 7 5 8 3 3 5 5 5 5 3 5 5 9 12 38 46 47 53 56 58 53 42 34 31 31 26 27 28 26 25 27 29
25 5 6 6 7 5 10 10 7 6 8 7 6 7 2 5 6 7 3 4 3 11 5 7 5 29 38 46 48 55 61 66 55 42 23 9 13 15 14 16 19 21 24 24
6 5 9 9 9 10 8 9 5 3 8 9 12 6 8 7 6 2 5 1 3 3 3 4 11 28 37 42 47 50 55 66 61 45 29 15 11 9 10 12 16 19 17 16
9 9 10 12 19 11 11 14 10 11 8 9 7 3 7 5 5 3 5 4 4 4 3 6 17 20 30 41 45 49 51 55 66 54 40 35 25 20 18 16 14 15 16 16
11 16 12 16 12 17 17 23 22 12 10 5 7 4 5 6 4 5 7 4 6 5 6 11 13 15 21 30 40 45 45 47 46 53 48 38 34 29 27 23 21 19 18 20
12 16 28 33 24 21 21 14 21 15 15 10 4 6 4 5 5 4 5 7 6 11 9 8 9 8 15 23 30 39 43 41 43 41 36 46 44 38 40 40 37 33 24 22
Wind_Direction_850mb
350 348 350 351 350 351 2 357 324 344 353 313 183 323 333 323 319 327 292 294 289 286 293 294 270 270 209 206 301 302 274 286 271 198 205 216 201 203 199 197 198 247 216 229
348 347 349 351 350 353 353 343 299 330 354 342 337 326 301 290 310 337 331 306 318 305 298 291 301 335 199 196 229 306 357 232 224 212 199 207 195 207 195 211 201 206 221 229
351 350 350 350 350 354 351 340 329 337 8 337 333 331 306 327 329 314 318 301 298 332 314 293 286 309 43 253 256 260 252 251 253 190 195 191 202 203 192 206 205 187 212 208
356 350 349 352 351 5 10 357 358 325 306 317 320 297 295 305 353 323 312 282 313 339 315 316 297 354 312 314 202 249 279 242 227 259 313 300 275 206 205 207 217 226 194 228
354 352 349 352 349 357 11 348 338 319 294 289 301 292 305 317 341 314 306 306 326 316 301 295 295 310 309 324 307 297 279 302 263 250 238 240 243 247 206 208 211 227 232 236
354 352 350 354 352 352 322 305 307 290 293 290 308 303 320 312 316 294 287 312 309 300 320 320 300 290 287 275 286 289 294 308 240 233 213 228 230 209 222 210 212 217 221 231
351 351 350 351 349 331 300 302 306 273 287 319 307 304 298 303 304 288 292 293 293 298 314 306 276 253 252 254 254 250 261 304 270 240 179 218 90 40 205 217 213 222 232 234
342 349 349 349 341 321 306 296 290 270 283 310 297 327 319 308 302 291 288 310 283 300 303 286 277 212 236 236 231 229 228 258 279 217 204 189 106 35 348 200 161 10 301 255
339 345 348 349 342 319 305 290 286 272 295 269 320 305 302 299 314 308 290 322 321 317 277 262 271 310 331 211 284 197 208 227 298 249 211 201 67 4 314 278 185 22 342 316
341 345 347 348 344 311 288 293 289 262 264 280 294 292 303 296 295 291 303 337 323 339 296 283 284 281 304 309 256 169 181 213 230 266 236 101 8 345 168 207 77 348 338 326
339 344 346 345 340 316 290 290 283 264 260 284 279 285 281 276 270 271 316 313 42 299 293 310 352 343 323 296 100 173 178 191 182 232 245 179 3 55 331 16 348 343 338 332
341 336 342 340 337 319 279 293 281 279 259 273 295 288 291 275 263 261 274 290 311 285 295 325 307 295 281 297 201 180 235 44 332 295 39 63 21 58 42 4 347 351 339 333
340 335 338 336 331 315 294 270 272 294 283 305 293 325 306 329 293 233 246 243 264 247 302 311 288 301 334 328 25 307 170 23 304 289 65 13 107 35 17 360 344 343 342 336
340 336 338 333 327 308 300 275 274 252 277 291 317 324 331 337 320 285 248 243 276 292 303 289 268 271 208 306 285 301 329 323 301 293 28 45 163 357 349 339 339 340 341 340
340 335 337 329 321 308 296 296 253 235 256 309 305 311 307 0 352 331 251 262 247 267 270 265 265 321 316 253 207 5 293 347 346 327 329 329 328 323 333 331 336 336 338 337
337 332 335 328 313 303 287 265 33 261 243 291 291 317 301 339 355 42 171 234 226 255 266 272 280 279 340 312 291 85 7 344 331 312 311 302 296 294 313 319 323 327 328 331
336 330 332 329 308 225 194 258 234 311 263 245 282 281 310 350 14 56 103 217 255 276 303 266 334 344 326 280 342 359 335 319 309 304 307 302 321 311 309 313 315 318 320 326
336 327 334 338 187 151 220 224 287 276 232 260 285 288 300 4 354 19 337 227 233 246 306 346 333 312 316 337 337 324 318 316 310 304 308 294 296 295 299 305 312 312 315 328
338 325 326 165 134 180 237 289 265 184 215 284 251 298 303 335 323 288 250 287 258 268 289 241 302 324 336 290 307 300 306 290 290 296 291 292 288 288 291 292 304 307 312 323
340 337 312 221 209 309 302 149 155 198 206 227 251 285 287 317 320 276 290 231 261 265 96 271 248 234 269 328 332 332 329 319 324 276 289 293 291 291 290 288 293 294 300 312
354 335 283 282 300 273 201 204 212 171 220 214 234 266 300 323 294 312 1 301 359 266 77 346 311 353 352 348 347 343 337 333 314 309 288 279 282 289 286 284 286 289 295 303
319 298 284 296 243 202 228 202 168 217 263 178 243 332 248 256 236 269 281 284 261 338 15 253 344 4 352 346 340 336 334 336 331 331 304 268 261 284 282 276 281 287 293 299
321 306 272 242 206 227 217 202 183 213 192 183 278 302 209 199 237 257 285 271 270 313 270 345 322 349 352 350 346 343 347 353 357 350 336 255 268 292 276 281 291 298 299 297
288 258 268 228 205 230 207 201 216 144 246 276 304 299 225 203 217 229 258 268 290 260 294 264 355 346 348 352 352 351 351 358 5 10 27 27 351 348 323 310 314 315 306 299
250 218 243 231 240 244 226 224 222 221 242 260 255 216 225 185 249 206 264 234 237 226 252 307 338 353 347 347 353 355 359 3 13 15 25 26 19 7 352 354 345 334 322 317
229 231 251 237 252 249 228 232 239 219 216 216 249 243 219 199 225 212 220 242 232 219 223 289 324 344 355 350 348 356 1 5 14 17 24 23 21 17 11 7 357 353 349 325
228 241 234 252 265 272 275 258 245 197 210 250 228 242 238 119 228 230 208 217 220 238 278 302 320 320 349 353 351 350 358 10 16 18 25 27 23 19 15 4 354 351 351 337